CZ-6A DEB

Satellite information

Favourite Embed

Satellite Type and Status

DEBRISIN ORBIT

Key statistics

Satellite CZ-6A DEB at a glance.

Uptime

335

Days in orbit

Revolutions

≈ 13.9

Per day

Orbit

LEO

Low Earth Orbit

Inclination

89.0

Latest

Satellite identification and parameters

Extended collection of information and parameters for CZ-6A DEB.

Object identification

Identified? True

Debris? True

Object name: CZ-6A DEB

International designator: 2024-140CJ

Object number (NORAD): 60681

Object ID (CCSDS): 60681

Country: PEOPLES REPUBLIC OF CHINA (PRC)

Current information (Y/N): Y

RCS size: MEDIUM

Orbital parameters

Period: 103.613 minutes

Inclination: 89.0047 deg

SMA: 7307.502 km

Apoapsis: 1061.477 km

Periapsis: 797.258 km

RAAN: 315.5105 deg

Eccentricy: 0.0180786

Argument of periapsis: 274.3066 deg

Mean anomaly: 83.7469 deg

Mean motion: 13.89790479 rev/day

Mean motion (dot): 0.00000379 rev/day2

B* drag term: 0.00026272 1/REarth

Two-line elements (TLE)

Creation date: July 6, 2025, 6:05 p.m.

Reference frame: TEME

Reference center: EARTH

Epoch: July 6, 2025, 9:32 a.m. UTC

TLE line 0: 0 CZ-6A DEB

TLE line 1: 1 60681U 24140CJ 25187.39746711 .00000379 00000-0 26272-3 0 9994

TLE line 2: 2 60681 89.0047 315.5105 0180786 274.3066 83.7469 13.89790479 46003

Live tracking on map

Real-time ground track for satellite CZ-6A DEB.

In-orbit conjunctions

A list of the most updated potential collisions computed for object CZ-6A DEB.

Target Orbit TCA Probability of collision Miss distance Type
SCOUT A R/B LEO 2025-01-20 02:43:21 0.0001693331 862.0 (m) ROCKET BODY
FENGYUN 1C DEB SSO 2024-11-09 22:48:39 0.0002489849 993.0 (m) DEBRIS
METEOR 2-9 LEO 2024-11-07 00:03:27 0.0001158579 838.0 (m) PAYLOAD
FENGYUN 1C DEB SSO 2024-10-07 20:42:52 0.0002205369 354.0 (m) DEBRIS

Associated space launch

18 Low Earth Orbit communication satellites with Ku, Q and V band payloads for the G60 constellation operated by Shanghai Spacecom Satellite Technology (SSST) with funding backed by the Shanghai local government. Initial constellation will consist of 1296 satellites by 2027 with long term plans to expand it to 12000 satellites.

CZ-6A DEB was lifted into orbit during the mission ‘Long March 6A | G60 Polar Group 01’, on board a Long March 6A space rocket.

The launch took place on Aug. 6, 2024, 6:42 a.m. from Launch Complex 9A.

For more information about the launch, click the button.

Launch to space Long March 6A | G60 Polar Group 01
Long March 6A | G60 Polar Group 01

Agency: N/A

Status: Launch Successful

Launch date: Aug. 6, 2024, 6:42 a.m. UTC

Rocket: Long March 6A

Launch pad: Launch Complex 9A

Location: Taiyuan Satellite Launch Center, People's Republic of China

...

Latest news about this satellite

News about space launch
Brightness of first Chinese broadband constellation satellites alarms astronomers

The first satellites of a Chinese broadband constellation are significantly brighter than those of Western systems, posing a new challenge for astronomers.

News about space launch
Chinese rocket stage breaks up into cloud of more than 700 pieces of space debris

HELSINKI — A Chinese Long March 6A rocket’s upper stage has fragmented into a cloud of over 700 pieces of space debris, adding to concerns about long-term orbital safety. China […]

News about space launch
China's Thousand Sails Megaconstellation Kicks Off with Dangerous Debris Field

China's Thousand Sails Megaconstellation Kicks Off with Dangerous Debris Field


Newsletter sign-up

Weekly statistics, charts and insights to help you stay on top of the space industry.